User: anonymous   Login
Location: Unspecified
(0.0000°N, 0.0000°E)
Time: 11:49:34
(UTC+00:00)
Language:

SAR-Lupe-4 - Orbit

View from above orbital plane
View from above orbital plane
View from above satellite
View from above satellite

Ground track
Ground track

The orbit data is extracted from the following two-line orbital elements,

1 32750U 08014A   17274.83285376 0.00002000  00000-0  74471-4 0    05
2 32750  98.1293 334.1258 0003000 304.4543  55.5455 15.27503274    08
Epoch (UTC): 01 October 2017 19:59:18
Eccentricity: 0.0003000
inclination: 98.1293°
perigee height: 481 km
apogee height: 485 km
right ascension of ascending node: 334.1258°
argument of perigee: 304.4543°
revolutions per day: 15.27503274
mean anomaly at epoch: 55.5455°
orbit number at epoch: 0

The dashed part of the orbit path shows where the satellite is in the earth's shadow,  

DLR